Location: Long Geng
(2.6167°N, 114.1333°E)
Time: 12:27:10
(UTC+00:00)

BLOCK DM-SL R/B - Visible Passes

Search period start: 21 September 2021 00:00
Search period end: 01 October 2021 00:00
Orbit: 655 x 35611 km, 0.2° (Epoch: 20 September)

Date Brightness Start Highest point End Pass type
(mag) Time Alt. Az. Time Alt. Az. Time Alt. Az.
21 Sep 5.4 21:15:08 20° W 21:19:53 78° S 07:02:59 10° E visible
23 Sep 10.3 05:54:06 10° W 07:25:29 30° W 11:04:09 10° W visible
23 Sep 7.5 15:05:58 10° W 15:17:02 23° W 15:17:02 23° W visible
24 Sep 6.3 02:35:44 10° W 04:24:31 79° WSW 12:30:11 51° ESE visible
25 Sep 4.8 20:44:12 38° WSW 20:46:59 77° S 06:26:35 10° E visible
27 Sep 7.1 05:15:43 10° W 06:53:02 36° W 14:46:14 33° W visible
28 Sep 6.5 02:02:20 10° W 11:49:01 84° S 11:59:25 36° E visible
29 Sep 4.4 20:13:15 65° SW 20:14:10 75° S 20:37:40 10° E visible
